DW1297 Weather Reports


time (UTC)temp
C
wind
direction
speed
KPH
gust
KPH
rain 1hr
cm
rain 24hr
cm
rain mn
cm
humidity
%
barometer
mb
20260507210013 30 184 0.0 12.9 0.00 0.00 0.00 44 1016.2
20260507204510 29 273 0.0 6.4 0.00 0.00 0.00 45 1016.5
20260507201506 28 260 0.0 12.9 0.00 0.00 0.00 44 1017.0
20260507200009 28 219 0.0 14.5 0.00 0.00 0.00 46 1017.2
20260507194505 28 211 0.0 12.9 0.00 0.00 0.00 46 1017.3
20260507193005 27 339 0.0 8.0 0.00 0.00 0.00 46 1017.6
20260507191505 27 217 0.0 1.6 0.00 0.00 0.00 46 1017.7
20260507190008 27 318 0.0 6.4 0.00 0.00 0.00 48 1017.9
20260507184512 27 177 0.0 8.0 0.00 0.00 0.00 48 1018.1
20260507183012 26 197 0.0 12.9 0.00 0.00 0.00 49 1018.2
20260507181512 26 234 0.0 0.0 0.00 0.00 0.00 50 1018.2
20260507180009 25 196 0.0 8.0 0.00 0.00 0.00 51 1018.4
20260507173005 25 282 0.0 6.4 0.00 0.00 0.00 53 1018.6
20260507171517 24 139 0.0 6.4 0.00 0.00 0.00 56 1018.6
20260507170005 23 152 0.0 3.2 0.00 0.00 0.00 57 1018.8
20260507164516 22 142 0.0 1.6 0.00 0.00 0.00 60 1018.8
20260507161526 20 136 0.0 0.0 0.00 0.00 0.00 66 1018.9
20260507160013 19 130 0.0 0.0 0.00 0.00 0.00 70 1018.8
20260507154518 18 126 0.0 0.0 0.00 0.00 0.00 76 1018.8
20260507153009 16 126 0.0 0.0 0.00 0.00 0.00 81 1018.9
20260507151512 15 65 0.0 0.0 0.00 0.00 0.00 86 1019.0
20260507144522 13 65 0.0 0.0 0.00 0.00 0.00 89 1019.0
20260507143020 13 65 0.0 0.0 0.00 0.00 0.00 89 1018.9
20260507141516 12 65 0.0 0.0 0.00 0.00 0.00 87 1018.7
20260507140023 12 65 0.0 0.0 0.00 0.00 0.00 86 1018.6
20260507134508 12 65 0.0 0.0 0.00 0.00 0.00 85 1018.6
20260507133026 12 205 0.0 0.0 0.00 0.00 0.00 85 1018.5
20260507130020 12 205 0.0 0.0 0.00 0.00 0.00 84 1018.2
20260507124521 12 205 0.0 0.0 0.00 0.00 0.00 83 1018.1
20260507123016 12 205 0.0 0.0 0.00 0.00 0.00 83 1018.2
20260507121515 13 205 0.0 0.0 0.00 0.00 0.00 83 1018.2
20260507120032 13 205 0.0 0.0 0.00 0.00 0.00 83 1018.1
20260507114511 13 205 0.0 0.0 0.00 0.00 0.00 82 1018.1
20260507113024 13 205 0.0 0.0 0.00 0.00 0.00 82 1018.1
20260507111515 13 205 0.0 0.0 0.00 0.00 0.00 82 1018.2
20260507110024 13 205 0.0 0.0 0.00 0.00 0.00 81 1018.3
20260507104520 13 205 0.0 0.0 0.00 0.00 0.00 81 1018.2
20260507103023 13 205 0.0 0.0 0.00 0.00 0.00 80 1018.3
20260507101521 13 205 0.0 0.0 0.00 0.00 0.00 80 1018.3
20260507100023 14 205 0.0 0.0 0.00 0.00 0.00 80 1018.3
20260507094522 14 205 0.0 0.0 0.00 0.00 0.00 79 1018.3
20260507093025 15 205 0.0 0.0 0.00 0.00 0.00 79 1018.3
20260507091518 15 205 0.0 0.0 0.00 0.00 0.00 78 1018.4
20260507090023 15 205 0.0 0.0 0.00 0.00 0.00 78 1018.5
20260507084526 15 205 0.0 0.0 0.00 0.00 0.00 78 1018.5
20260507083023 15 205 0.0 0.0 0.00 0.00 0.00 77 1018.6
20260507081534 15 205 0.0 0.0 0.00 0.00 0.00 76 1018.6
20260507080019 16 205 0.0 0.0 0.00 0.00 0.00 76 1018.5
20260507074536 16 205 0.0 0.0 0.00 0.00 0.00 74 1018.5
20260507073023 16 205 0.0 0.0 0.00 0.00 0.00 73 1018.6
20260507071526 16 205 0.0 0.0 0.00 0.00 0.00 74 1018.6
20260507070010 17 205 0.0 0.0 0.00 0.00 0.00 73 1018.6
20260507064507 17 205 0.0 0.0 0.00 0.00 0.00 72 1018.6
20260507063007 17 205 0.0 0.0 0.00 0.00 0.00 71 1018.6
20260507061508 17 205 0.0 0.0 0.00 0.00 0.00 70 1018.6
20260507060020 17 205 0.0 0.0 0.00 0.00 0.00 69 1018.5
20260507054521 18 205 0.0 0.0 0.00 0.00 0.00 68 1018.4
20260507053014 18 205 0.0 0.0 0.00 0.00 0.00 67 1018.4
20260507051515 18 205 0.0 0.0 0.00 0.00 0.00 66 1018.5
20260507050024 19 205 0.0 0.0 0.00 0.00 0.00 65 1018.6
20260507044510 20 205 0.0 0.0 0.00 0.00 0.00 63 1018.5
20260507043023 20 205 0.0 0.0 0.00 0.00 0.00 63 1018.4
20260507041522 20 205 0.0 0.0 0.00 0.00 0.00 61 1018.2
20260507034520 21 205 0.0 0.0 0.00 0.00 0.00 57 1018.0
20260507031510 23 205 0.0 0.0 0.00 0.00 0.00 54 1017.7
20260507030008 23 206 0.0 0.0 0.00 0.00 0.00 53 1017.5
20260507024519 24 217 0.0 0.0 0.00 0.00 0.00 51 1017.5
20260507023025 24 217 0.0 0.0 0.00 0.00 0.00 50 1017.4
20260507021522 25 213 0.0 0.0 0.00 0.00 0.00 48 1017.4
20260507020020 26 260 0.0 11.3 0.00 0.00 0.00 47 1017.3
20260507014536 26 254 0.0 0.0 0.00 0.00 0.00 46 1017.3
20260507013012 26 261 0.0 6.4 0.00 0.00 0.00 46 1017.4
20260507011528 26 211 0.0 0.0 0.00 0.00 0.00 45 1017.3
20260507010012 26 360 0.0 8.0 0.00 0.00 0.00 45 1017.3
20260507004524 26 259 0.0 4.8 0.00 0.00 0.00 45 1017.3
20260507001504 27 185 0.0 6.4 0.00 0.00 0.00 44 1017.2
20260507000004 27 184 0.0 11.3 0.00 0.00 0.00 43 1017.2
20260506234504 27 200 0.0 9.7 0.00 0.00 0.00 43 1017.2
20260506233016 27 210 1.6 9.7 0.00 0.00 0.00 43 1017.2
20260506231503 26 333 0.0 0.0 0.00 0.00 0.00 43 1017.3
20260506230004 26 213 1.6 9.7 0.00 0.00 0.00 44 1017.5
20260506224503 26 275 1.6 11.3 0.00 0.00 0.00 45 1017.7
20260506221520 26 194 0.0 14.5 0.00 0.00 0.00 43 1017.9
20260506220015 26 184 0.0 0.0 0.00 0.00 0.00 44 1018.2
20260506214506 26 185 1.6 14.5 0.00 0.00 0.00 44 1018.5
20260506213008 26 286 0.0 17.7 0.00 0.00 0.00 44 1018.6